Weather History for Ladysmith, WI

Change the Weather History Date:

Wednesday, March 5, 2014

  Actual Average (KRPD) Record (KRPD)
Temperature  
Mean Temperature 13 °F -  
Max Temperature 23 °F 27 °F 40 °F (2009)
Min Temperature 3 °F 12 °F -18 °F (2003)
Degree Days  
Heating Degree Days 52    
Moisture  
Dew Point -1 °F    
Average Humidity 57    
Maximum Humidity 79    
Minimum Humidity 31    
Precipitation  
Precipitation 0.00 in - - ()
Sea Level Pressure  
Sea Level Pressure 30.41 in    
Wind  
Wind Speed 7 mph (ESE)    
Max Wind Speed 9 mph    
Max Gust Speed -    
Visibility 10 miles    
Events      
Averages and records for this station are not official NWS values.
T = Trace of Precipitation, MM = Missing Value Source: NWS Daily Summary

Daily Weather History Graph

Daily Weather History Graph

Search for Another Location

Airport:

Trip Planner

Search our weather history database for the weather conditions in past years. The results will help you decide how hot, cold, wet, or windy it might be!

Date:

Astronomy

Mar. 05, 2014 Rise Set
Actual Time 6:35 AM CST 5:56 PM CST
Civil Twilight 6:05 AM CST 6:26 PM CST
Nautical Twilight 5:31 AM CST 7:00 PM CST
Astronomical Twilight 4:56 AM CST 7:35 PM CST
Moon 8:46 AM CST (3/5) 11:21 PM CST (3/5)
Length of Visible Light 12h 20m
Length of Day
11h 21m
Waxing Crescent, 23% of the Moon is Illuminated
Mar 5
Waxing Crescent
Mar 8
First Quarter
Mar 16
Full
Mar 23
Last Quarter
Mar 30
New

Hourly Weather History & Observations

Time (CST) Temp. Windchill Dew Point Humidity Pressure Visibility Wind Dir Wind Speed Gust Speed Precip Events Conditions
12:15 AM 12.0 °F 0.5 °F 4.3 °F 71% 30.30 in 10.0 mi ENE 8.1 mph - N/A   Clear
12:35 AM 11.8 °F -0.7 °F 4.1 °F 71% 30.30 in 10.0 mi ENE 9.2 mph - N/A   Clear
12:55 AM 12.0 °F 0.5 °F 3.9 °F 70% 30.31 in 10.0 mi ENE 8.1 mph - N/A   Clear
1:15 AM 11.1 °F 0.4 °F 3.7 °F 72% 30.31 in 10.0 mi ENE 6.9 mph - N/A   Clear
1:35 AM 10.4 °F 0.8 °F 3.2 °F 73% 30.32 in 10.0 mi ENE 5.8 mph - N/A   Clear
1:55 AM 9.5 °F 3.0 °F 2.3 °F 73% 30.33 in 10.0 mi East 3.5 mph - N/A   Clear
2:15 AM 8.6 °F -2.6 °F 2.3 °F 76% 30.34 in 10.0 mi ENE 6.9 mph - N/A   Clear
2:35 AM 7.9 °F -2.2 °F 1.9 °F 77% 30.34 in 10.0 mi ENE 5.8 mph - N/A   Clear
2:55 AM 7.0 °F -1.7 °F 1.2 °F 77% 30.35 in 10.0 mi NE 4.6 mph - N/A   Clear
3:15 AM 5.7 °F -3.2 °F 0.3 °F 78% 30.36 in 10.0 mi NE 4.6 mph - N/A   Clear
3:35 AM 4.5 °F -6.3 °F -0.8 °F 79% 30.36 in 10.0 mi NE 5.8 mph - N/A   Clear
3:55 AM 4.8 °F -5.8 °F -0.8 °F 78% 30.36 in 10.0 mi NE 5.8 mph - N/A   Clear
4:15 AM 4.8 °F -8.3 °F -1.1 °F 76% 30.37 in 10.0 mi NE 8.1 mph - N/A   Clear
4:35 AM 5.2 °F -7.9 °F -0.9 °F 76% 30.38 in 10.0 mi ENE 8.1 mph - N/A   Clear
4:55 AM 5.0 °F -8.1 °F -1.3 °F 75% 30.38 in 10.0 mi ENE 8.1 mph - N/A   Clear
5:15 AM 4.5 °F -8.7 °F -1.7 °F 76% 30.39 in 10.0 mi ENE 8.1 mph - N/A   Clear
5:35 AM 4.1 °F -10.2 °F -1.5 °F 78% 30.39 in 10.0 mi East 9.2 mph - N/A   Clear
5:55 AM 4.1 °F -9.2 °F -1.7 °F 77% 30.40 in 10.0 mi ENE 8.1 mph - N/A   Clear
6:15 AM 4.1 °F -8.0 °F -1.8 °F 76% 30.41 in 10.0 mi East 6.9 mph - N/A   Clear
6:35 AM 3.9 °F -9.4 °F -2.2 °F 76% 30.42 in 10.0 mi ENE 8.1 mph - N/A   Clear
6:55 AM 3.0 °F -10.5 °F -2.7 °F 77% 30.42 in 10.0 mi ENE 8.1 mph - N/A   Clear
7:15 AM 3.4 °F -8.9 °F -2.4 °F 77% 30.43 in 10.0 mi East 6.9 mph - N/A   Clear
7:35 AM 4.3 °F -6.5 °F -2.2 °F 75% 30.44 in 10.0 mi East 5.8 mph - N/A   Clear
7:55 AM 5.5 °F -3.4 °F -1.8 °F 72% 30.44 in 10.0 mi East 4.6 mph - N/A   Clear
8:15 AM 6.4 °F -5.2 °F -1.8 °F 69% 30.45 in 10.0 mi ENE 6.9 mph - N/A   Clear
8:35 AM 7.7 °F -0.9 °F -1.5 °F 66% 30.45 in 10.0 mi East 4.6 mph - N/A   Clear
8:55 AM 10.2 °F 2.0 °F -0.6 °F 62% 30.45 in 10.0 mi East 4.6 mph - N/A   Clear
9:15 AM 11.7 °F 2.3 °F -0.4 °F 58% 30.46 in 10.0 mi East 5.8 mph - N/A   Clear
9:35 AM 13.1 °F 1.8 °F -0.6 °F 54% 30.47 in 10.0 mi East 8.1 mph - N/A   Clear
9:55 AM 13.8 °F 4.9 °F -0.0 °F 54% 30.47 in 10.0 mi East 5.8 mph - N/A   Clear
10:15 AM 14.9 °F 4.0 °F -0.4 °F 51% 30.47 in 10.0 mi East 8.1 mph - N/A   Clear
10:35 AM 16.5 °F 6.9 °F -0.2 °F 48% 30.48 in 10.0 mi East 6.9 mph - N/A   Clear
10:55 AM 17.6 °F 9.3 °F 0.5 °F 47% 30.48 in 10.0 mi East 5.8 mph - N/A   Clear
11:15 AM 18.5 °F 10.4 °F -0.2 °F 44% 30.47 in 10.0 mi East 5.8 mph - N/A   Clear
11:35 AM 19.0 °F 10.0 °F -0.4 °F 43% 30.47 in 10.0 mi ENE 6.9 mph - N/A   Clear
11:55 AM 19.9 °F 11.1 °F -0.2 °F 41% 30.47 in 10.0 mi East 6.9 mph - N/A   Clear
12:15 PM 20.5 °F 12.8 °F -0.6 °F 40% 30.47 in 10.0 mi East 5.8 mph - N/A   Clear
12:35 PM 21.2 °F 14.9 °F -0.6 °F 39% 30.45 in 10.0 mi East 4.6 mph - N/A   Clear
12:55 PM 21.6 °F 15.3 °F -0.4 °F 38% 30.44 in 10.0 mi East 4.6 mph - N/A   Clear
1:15 PM 21.6 °F 15.3 °F -1.5 °F 37% 30.44 in 10.0 mi ENE 4.6 mph - N/A   Clear
1:35 PM 23.0 °F 15.8 °F -1.5 °F 34% 30.43 in 10.0 mi East 5.8 mph - N/A   Clear
1:55 PM 23.0 °F 18.4 °F -3.1 °F 32% 30.43 in 10.0 mi East 3.5 mph - N/A   Clear
2:15 PM 23.4 °F 18.9 °F -1.1 °F 34% 30.43 in 10.0 mi East 3.5 mph - N/A   Clear
2:35 PM 23.9 °F - -3.1 °F 31% 30.42 in 10.0 mi Calm Calm - N/A   Clear
2:55 PM 23.0 °F 13.9 °F -0.0 °F 37% 30.42 in 10.0 mi SW 8.1 mph - N/A   Clear
3:15 PM 22.6 °F 15.3 °F -0.2 °F 37% 30.42 in 10.0 mi SW 5.8 mph - N/A   Clear
3:35 PM 22.1 °F 15.9 °F 1.9 °F 42% 30.43 in 10.0 mi South 4.6 mph - N/A   Clear
3:55 PM 21.9 °F 13.4 °F 0.1 °F 39% 30.43 in 10.0 mi SW 6.9 mph - N/A   Clear
4:15 PM 21.9 °F 15.7 °F -0.2 °F 38% 30.42 in 10.0 mi South 4.6 mph - N/A   Clear
4:35 PM 21.7 °F 14.3 °F -1.3 °F 37% 30.42 in 10.0 mi South 5.8 mph - N/A   Clear
4:55 PM 20.3 °F 15.4 °F -0.0 °F 41% 30.41 in 10.0 mi South 3.5 mph - N/A   Clear
5:15 PM 19.4 °F 10.4 °F 0.1 °F 43% 30.41 in 10.0 mi South 6.9 mph - N/A   Clear
5:35 PM 18.3 °F 9.1 °F -0.6 °F 44% 30.41 in 10.0 mi SSW 6.9 mph - N/A   Clear
5:55 PM 17.4 °F 9.1 °F -0.4 °F 46% 30.41 in 10.0 mi South 5.8 mph - N/A   Clear
6:15 PM 15.6 °F 7.0 °F -0.4 °F 49% 30.41 in 10.0 mi South 5.8 mph - N/A   Clear
6:35 PM 16.2 °F 7.6 °F 0.1 °F 49% 30.41 in 10.0 mi South 5.8 mph - N/A   Clear
6:55 PM 13.3 °F 4.2 °F -0.9 °F 53% 30.41 in 10.0 mi South 5.8 mph - N/A   Clear
7:20 PM 13.3 °F 4.2 °F -1.1 °F 53% 30.41 in 10.0 mi SSE 5.8 mph - N/A   Clear
7:35 PM 13.5 °F 7.5 °F -1.5 °F 51% 30.41 in 10.0 mi South 3.5 mph - N/A   Clear
7:55 PM 12.4 °F - -1.7 °F 54% 30.41 in 10.0 mi Calm Calm - N/A   Clear
8:15 PM 9.1 °F 0.8 °F -1.7 °F 62% 30.40 in 10.0 mi SSE 4.6 mph - N/A   Clear
8:35 PM 12.9 °F 5.2 °F -1.3 °F 53% 30.40 in 10.0 mi SE 4.6 mph - N/A   Clear
8:55 PM 12.0 °F 2.7 °F -1.5 °F 55% 30.40 in 10.0 mi SE 5.8 mph - N/A   Clear
9:15 PM 11.3 °F 3.3 °F -1.7 °F 56% 30.40 in 10.0 mi SSE 4.6 mph - N/A   Clear
9:35 PM 10.4 °F 2.2 °F -1.8 °F 58% 30.41 in 10.0 mi South 4.6 mph - N/A   Clear
9:55 PM 10.9 °F 0.2 °F -1.7 °F 57% 30.40 in 10.0 mi SSE 6.9 mph - N/A   Clear
10:15 PM 10.4 °F -1.5 °F -2.2 °F 57% 30.40 in 10.0 mi SSE 8.1 mph - N/A   Clear
10:35 PM 9.9 °F -1.1 °F -3.1 °F 56% 30.40 in 10.0 mi SSE 6.9 mph - N/A   Clear
10:55 PM 9.3 °F -3.8 °F -3.3 °F 57% 30.39 in 10.0 mi SSE 9.2 mph - N/A   Clear
11:15 PM 9.0 °F -4.2 °F -3.8 °F 56% 30.39 in 10.0 mi SSE 9.2 mph - N/A   Clear
11:35 PM 8.4 °F -2.8 °F -4.2 °F 57% 30.39 in 10.0 mi SSE 6.9 mph - N/A   Clear